Regional Weather Roundup
Issued by NWS

Home | Current Version | Previous Version | Text Only | Print | Product List | Glossary On
Versions: 1 2 3 4 5 6 7 8 9 10 11 12 13 14 15 16 17 18 19 20 21 22 23 24 25 26 27 28 29 30 31 32 33 34 35 36 37 38 39 40 41 42 43 44 45 46 47 48 49 50
122
ASUS44 KJAN 291803
RWRMS

MISSISSIPPI HOURLY WEATHER ROUNDUP
NATIONAL WEATHER SERVICE JACKSON MS
1200 PM CST THU JAN 29 2015

NOTE: "FAIR: INDICATES FEW OR NO CLOUDS BELOW 12,000 FEET WITH NO
SIGNIFICANT WEATHER AND/OR OBSTRUCTIONS TO VISIBILITY.

MSZ001>002-007>008-010>013-018>021-025>028-034>036-291900-
NORTHWEST MISSISSIPPI

CITY           SKY/WX    TMP DP  RH WIND       PRES   REMARKS
CLARKSDALE     FAIR      63  50  63 W13       30.14S
CLEVELAND      FAIR      64  55  70 W12       30.14S
GREENWOOD      PTSUNNY   66  49  54 W12G18    30.15F
6HR MIN TEMP:  54; 6HR MAX TEMP:  66;

GREENVILLE     MOSUNNY   67  51  56 W15       30.14F
6HR MIN TEMP:  53; 6HR MAX TEMP:  67;

GRENADA        FAIR      64  46  52 W12G22    30.13F
OLIVE BRANCH   PTSUNNY   61  46  59 W10G16    30.11F
OXFORD         FAIR      61  46  59 SW13G20   30.14F
TUNICA         CLOUDY    63  46  55 W10       30.13S
$$

MSZ003>006-009-014>017-022>024-029>033-037>039-291900-
NORTHEAST MISSISSIPPI

CITY           SKY/WX    TMP DP  RH WIND       PRES   REMARKS
COLUMBUS AFB   PTSUNNY   63  45  52 S9        30.13F
6HR MIN TEMP:  47; 6HR MAX TEMP:  63; 6HR PCP: TRACE;

CORINTH        FAIR      63  45  51 SW13G21   30.08F
GOLDN TRIANGLE MOSUNNY   64  48  55 SW12      30.14F
STARKVILLE     MOCLDY    64  46  52 W6G17     30.14F
TUPELO         PTSUNNY   61  42  49 SW7       30.12F
6HR MIN TEMP:  46; 6HR MAX TEMP:  61; 6HR PCP: TRACE;

$$

MSZ040-058-291900-
CENTRAL MISSISSIPPI

CITY           SKY/WX    TMP DP  RH WIND       PRES   REMARKS
JACKSON INTL   MOSUNNY   72  52  49 SW14G22   30.17F
6HR MIN TEMP:  47; 6HR MAX TEMP:  72;

JACKSON HAWKNS SUNNY     72  48  42 SW17G23   30.18F
6HR MIN TEMP:  44; 6HR MAX TEMP:  72;

MERIDIAN KEY   SUNNY     69  50  50 SW14G26   30.19F
6HR MIN TEMP:  36; 6HR MAX TEMP:  69;

MERIDIAN NAS   MOSUNNY   67  49  52 SW13G21   30.18F
6HR MIN TEMP:  41; 6HR MAX TEMP:  67;

RAYMOND        FAIR      70  64  83 SW10G21   30.18F
VICKSBURG      SUNNY     70  50  49 SW13G23   30.19F
6HR MIN TEMP:  50; 6HR MAX TEMP:  70;

$$

MSZ059>079-291900-
SOUTH MISSISSIPPI

CITY           SKY/WX    TMP DP  RH WIND       PRES   REMARKS
BROOKHAVEN     FAIR      70  54  56 SW9       30.22F
HATTIESBURG    MOSUNNY   71  52  50 SW9G22    30.23F
6HR MIN TEMP:  35; 6HR MAX TEMP:  71;

MCCOMB         SUNNY     70  56  61 SW14G21   30.23F
6HR MIN TEMP:  41; 6HR MAX TEMP:  71;

NATCHEZ        SUNNY     68  54  60 SW12      30.22F
6HR MIN TEMP:  52; 6HR MAX TEMP:  68;

PINE BELT      SUNNY     72  54  53 SW8       30.23F
6HR MIN TEMP:  36; 6HR MAX TEMP:  72;

$$

MSZ080>082-291900-
COASTAL MISSISSIPPI

CITY           SKY/WX    TMP DP  RH WIND       PRES   REMARKS
BAY ST LOUIS   MOSUNNY   72  48  43 S9        30.26F
BILOXI         SUNNY     69  53  57 VRB7      30.27F
6HR MIN TEMP:  44; 6HR MAX TEMP:  69;

PASCAGOULA     SUNNY     70  52  52 S9G17     30.27F
6HR MIN TEMP:  36; 6HR MAX TEMP:  70;

GULFPORT       SUNNY     68  51  54 S7        30.27F
6HR MIN TEMP:  40; 6HR MAX TEMP:  68;

$$



USA.gov is the U.S. government's official web portal to all federal, state and local government web resources and services.